Weather History for Eufaula, AL

Change the Weather History Date:

Monday, October 29, 2012

  Actual Average (KLSF) Record (KLSF)
Temperature  
Mean Temperature 52 °F -  
Max Temperature 61 °F 73 °F 86 °F (1996)
Min Temperature 43 °F 47 °F 26 °F (2001)
Degree Days  
Heating Degree Days 13    
Growing Degree Days 2 (Base 50)    
Moisture  
Dew Point 31 °F    
Average Humidity 48    
Maximum Humidity 71    
Minimum Humidity 30    
Precipitation  
Precipitation 0.00 in - - ()
Sea Level Pressure  
Sea Level Pressure 29.90 in    
Wind  
Wind Speed 8 mph (NW)    
Max Wind Speed 13 mph    
Max Gust Speed 29 mph    
Visibility 10 miles    
Events      
Averages and records for this station are not official NWS values.
T = Trace of Precipitation, MM = Missing Value Source: NWS Daily Summary

Daily Weather History Graph

Daily Weather History Graph

Search for Another Location

Airport:

Trip Planner

Search our weather history database for the weather conditions in past years. The results will help you decide how hot, cold, wet, or windy it might be!

Date:

Astronomy

Oct. 29, 2012 Rise Set
Actual Time 6:55 AM CDT 5:52 PM CDT
Civil Twilight 6:29 AM CDT 6:18 PM CDT
Nautical Twilight 6:01 AM CDT 6:46 PM CDT
Astronomical Twilight 5:32 AM CDT 7:15 PM CDT
Moon 5:47 PM CDT (10/29) 6:43 AM CDT (10/29)
Length of Visible Light 11h 48m
Length of Day
10h 57m
Full, 100% of the Moon is Illuminated
Oct 29
Full
Oct 29
Full
Nov 6
Last Quarter
Nov 13
New
Nov 20
First Quarter

Hourly Weather History & Observations

Time (CDT) Temp. Windchill Dew Point Humidity Pressure Visibility Wind Dir Wind Speed Gust Speed Precip Events Conditions
12:58 AM 48.0 °F - 36.0 °F 63% 29.93 in 10.0 mi Variable 5.8 mph - N/A   Clear
1:58 AM 46.9 °F - 35.1 °F 63% 29.93 in 10.0 mi Variable 5.8 mph - N/A   Clear
2:58 AM 46.0 °F 42.5 °F 34.0 °F 63% 29.92 in 10.0 mi WNW 6.9 mph - N/A   Clear
3:58 AM 45.0 °F 41.2 °F 34.0 °F 65% 29.92 in 10.0 mi WNW 6.9 mph - N/A   Clear
4:58 AM 44.1 °F 40.1 °F 34.0 °F 68% 29.93 in 10.0 mi WNW 6.9 mph - N/A   Clear
5:58 AM 44.1 °F 39.0 °F 34.0 °F 68% 29.94 in 10.0 mi NW 9.2 mph - N/A   Clear
6:58 AM 43.0 °F 37.2 °F 34.0 °F 71% 29.95 in 10.0 mi WNW 10.4 mph 18.4 mph 0.00 in   Clear
7:58 AM 46.0 °F 41.4 °F 34.0 °F 63% 29.96 in 10.0 mi NW 9.2 mph 23.0 mph N/A   Clear
8:58 AM 48.9 °F - 34.0 °F 56% 29.96 in 10.0 mi NNW 10.4 mph 21.9 mph N/A   Clear
9:58 AM 52.0 °F - 34.0 °F 50% 29.96 in 10.0 mi NNW 11.5 mph 28.8 mph N/A   Clear
10:58 AM 55.0 °F - 32.0 °F 42% 29.94 in 10.0 mi NNW 11.5 mph 25.3 mph N/A   Clear
11:58 AM 57.0 °F - 30.9 °F 37% 29.92 in 10.0 mi NW 12.7 mph 26.5 mph N/A   Clear
12:58 PM 60.1 °F - 30.9 °F 33% 29.90 in 10.0 mi WNW 11.5 mph 21.9 mph N/A   Clear
1:58 PM 61.0 °F - 30.0 °F 31% 29.87 in 10.0 mi NW 11.5 mph 23.0 mph N/A   Clear
2:58 PM 61.0 °F - 28.9 °F 30% 29.85 in 10.0 mi WNW 10.4 mph 23.0 mph N/A   Clear
3:58 PM 60.1 °F - 28.0 °F 30% 29.85 in 10.0 mi NW 12.7 mph 26.5 mph N/A   Clear
4:58 PM 57.9 °F - 26.1 °F 30% 29.84 in 10.0 mi NW 9.2 mph 21.9 mph N/A   Clear
5:58 PM 55.0 °F - 26.1 °F 33% 29.86 in 10.0 mi NW 9.2 mph 20.7 mph N/A   Clear
6:58 PM 52.0 °F - 27.0 °F 38% 29.86 in 10.0 mi NW 9.2 mph - N/A   Clear
7:58 PM 50.0 °F - 27.0 °F 41% 29.87 in 10.0 mi WNW 4.6 mph - N/A   Clear
8:58 PM 50.0 °F - 27.0 °F 41% 29.89 in 10.0 mi WNW 6.9 mph - N/A   Clear
9:58 PM 48.0 °F - 27.0 °F 44% 29.89 in 10.0 mi WNW 6.9 mph - N/A   Clear
10:58 PM 46.9 °F - 26.1 °F 44% 29.89 in 10.0 mi West 6.9 mph - N/A   Clear
11:58 PM 46.0 °F 42.5 °F 26.1 °F 46% 29.88 in 10.0 mi Variable 6.9 mph - N/A   Clear